Lid_Strength_Index
2 1 1 1 1 0 0 0 0 0 0 1 1 1 1 0 -0 -1 -1 -1 -1 -1 -0 -0 -0 0 0 1 -0 0 1 1 -0 1 1 1 -0 -0 -0 -1 -1 -1 -1
2 2 2 2 1 1 1 1 1 0 0 0 -0 -0 -0 -0 -0 -1 -1 -1 -1 -1 -0 -0 -0 -0 0 0 -0 0 1 1 -0 2 2 4 2 1 0 -0 -0 -0 -1
3 2 3 2 2 1 1 1 1 0 -0 -1 -0 -0 -0 -0 1 0 0 -0 -1 -1 -0 -0 -0 -0 -0 0 0 0 1 2 1 0 2 4 5 3 1 0 0 -0 -0
3 3 3 2 2 2 1 1 0 0 -0 -1 -0 -0 1 1 0 0 -1 -0 -1 -1 -1 -1 -0 -1 -1 -0 -0 -0 0 0 2 1 0 0 1 4 5 1 1 -0 0
3 3 3 2 2 1 1 1 0 0 -0 -0 -0 1 1 0 -0 -0 0 -0 -1 -0 -1 -1 -1 -1 -1 -1 -1 -0 0 -0 1 1 1 1 1 1 3 5 3 1 1
3 3 2 2 2 1 1 1 1 1 0 -0 -0 0 1 1 1 1 1 0 -0 -0 -1 -1 -1 -1 -1 -0 -0 -0 -0 -0 0 0 1 1 2 2 2 4 4 4 2
4 3 3 3 2 2 1 1 1 1 0 0 0 0 1 1 1 1 0 1 1 1 -0 -1 -1 -0 -1 -1 -1 -0 -0 -0 0 0 1 0 0 0 1 2 4 4 3
4 3 3 3 2 2 1 1 1 1 1 0 0 0 0 -0 0 0 0 -0 0 0 -1 -1 -1 -0 -1 -1 -1 -0 0 -0 -0 0 0 0 -0 -0 -0 1 3 5 4
4 3 3 2 2 2 2 1 1 1 1 0 0 0 0 0 0 0 -0 0 -0 -0 -0 -1 -0 -1 -1 -1 -1 -0 0 -0 -0 -0 -0 0 1 -1 0 0 1 3 6
4 3 3 3 2 2 1 1 1 1 1 0 0 0 0 -0 -0 0 0 0 -0 -0 -0 -0 -0 -0 -0 -0 -0 0 -0 0 1 1 1 0 -0 -0 0 0 1 1 3
4 4 3 2 2 2 1 1 1 1 1 1 0 0 0 0 -0 0 0 0 -0 -0 -0 -0 -0 0 -0 -1 -0 -0 0 1 0 0 1 1 0 1 1 0 1 2 2
4 3 3 2 2 2 2 1 1 1 1 0 0 1 0 0 -0 0 0 -0 -0 -0 -0 -0 0 0 -0 -1 1 1 0 1 1 1 1 1 1 1 1 1 1 1 1
4 3 3 3 3 2 2 1 1 1 1 0 1 1 1 0 1 0 0 0 -0 -0 -0 -0 0 0 0 1 0 0 1 1 1 1 1 1 1 1 1 1 1 1 1
4 3 3 3 2 2 2 1 1 1 1 1 1 1 1 1 0 0 0 0 -0 0 -0 -0 0 0 0 0 0 1 1 1 0 0 0 1 1 1 1 1 1 1 2
4 4 3 3 2 2 2 1 1 1 1 1 1 1 1 0 0 0 0 0 -0 0 0 0 0 0 0 1 1 1 1 1 1 0 0 0 1 2 1 1 1 1 2
4 4 3 3 3 2 2 1 1 1 1 1 1 1 1 1 1 0 0 0 0 0 0 0 0 1 1 6 5 2 1 1 1 1 1 0 1 3 5 5 4 2 2
4 4 3 3 2 2 1 2 1 1 1 1 1 1 1 1 1 0 1 1 1 0 0 1 0 1 0 7 6 5 0 1 1 1 1 1 0 1 1 6 6 6 6
4 3 3 2 2 1 1 1 1 1 1 1 1 1 1 1 1 1 1 1 0 1 1 1 1 1 0 7 7 6 0 0 0 0 0 0 1 1 1 1 2 3 3
3 2 2 2 2 1 1 1 1 1 1 1 1 1 1 1 1 1 1 1 1 1 1 1 1 1 1 9 8 4 0 1 1 0 0 0 0 8 7 1 3 4 6
2 2 2 2 2 1 1 1 2 1 1 1 1 1 1 1 1 1 1 0 0 1 1 1 1 5 3 10 9 3 1 2 1 1 0 7 3 9 7 1 1 3 4
2 2 2 2 2 1 1 2 1 2 1 1 0 1 0 0 0 0 0 1 1 1 1 1 1 1 2 5 9 7 1 1 2 1 1 3 10 10 8 5 0 2 2
2 2 2 2 1 1 1 2 2 1 0 0 1 1 0 0 1 0 0 1 1 1 1 1 1 1 0 5 8 9 5 4 1 1 1 3 11 10 8 5 10 8 4
2 2 2 2 2 1 1 2 1 1 1 1 1 1 1 0 0 1 1 1 1 1 2 2 2 2 1 0 9 10 8 7 1 0 3 10 11 10 8 10 9 9 0
2 2 2 2 2 1 1 1 1 1 1 1 1 1 1 1 0 1 1 1 1 1 1 2 2 1 1 1 0 0 0 7 2 6 2 3 5 10 5 4 4 -0 -0
2 2 2 2 2 1 1 1 1 1 1 1 1 1 1 1 1 1 1 1 -0 1 1 1 1 1 2 1 2 2 0 0 2 1 0 1 1 1 1 0 -0 -0 -0
2 2 2 2 2 2 1 1 1 1 1 1 1 1 1 1 1 1 1 10 7 6 7 7 4 0 5 9 9 8 10 11 9 1 1 1 1 1 1 1 1 0 1